Dewpoint
25 26 26 27 28 29 29 29 29 25 21 21 19 31 35 45 52 56 55 55 55 57 58 61 60 60 59 60 59 59 59 59 60 62 61 61 61 61
24 25 25 26 26 28 28 29 29 28 26 26 25 27 29 30 39 46 47 54 54 56 57 59 60 59 59 59 58 58 60 60 60 61 61 61 61 60
24 24 24 25 25 26 27 27 28 29 27 27 28 28 29 29 26 28 36 43 55 54 56 58 59 58 58 58 58 57 58 59 60 60 60 61 60 59
23 24 24 23 23 24 25 25 26 26 27 26 27 29 30 31 31 30 28 37 42 53 55 57 57 58 57 57 57 57 58 59 59 59 60 59 59 57
23 23 24 24 23 24 24 24 25 25 25 26 26 27 28 31 33 34 33 35 39 41 54 55 56 57 57 57 57 57 57 57 57 57 57 57 56 56
25 25 25 25 25 24 24 24 24 24 25 25 25 26 27 27 32 33 33 32 34 36 46 54 55 56 56 56 56 56 56 57 55 55 55 54 54 54
26 27 27 27 27 27 27 25 24 24 24 24 24 25 25 27 27 30 31 30 30 37 43 54 53 54 55 55 55 55 55 55 56 54 53 53 51 51
26 27 27 26 26 26 27 28 30 27 24 24 24 23 23 26 27 28 28 28 28 31 36 45 53 52 54 54 54 53 54 54 55 54 53 52 51 50
25 25 25 24 24 24 25 25 27 30 32 28 24 24 24 25 26 29 31 31 30 31 38 43 52 51 52 52 52 52 53 53 53 53 53 52 52 51
25 24 24 25 26 26 26 28 28 27 26 28 31 28 25 25 26 28 30 30 30 31 35 38 50 51 52 52 51 51 51 52 53 53 52 52 52 51
24 24 24 25 26 26 26 26 26 27 28 32 29 29 31 29 27 27 28 28 28 30 35 36 37 51 51 51 51 50 50 51 51 52 52 52 52 51
23 23 21 21 21 22 23 25 23 23 24 24 28 32 30 32 32 29 35 32 32 32 36 39 40 51 49 51 51 51 50 50 51 51 51 51 51 50
21 20 19 20 22 23 24 26 25 25 24 23 26 29 30 32 32 31 28 34 35 32 34 37 35 49 50 49 51 51 50 50 51 50 50 50 50 50
20 20 21 22 20 21 23 27 33 35 28 26 28 30 30 31 31 30 29 29 34 35 35 36 42 50 49 47 48 50 50 50 50 50 50 50 50 50
20 20 19 18 18 19 21 23 24 32 29 29 30 30 30 30 30 30 30 29 30 34 37 39 43 42 46 49 47 49 49 50 50 50 50 50 49 49
17 16 15 14 14 15 16 18 19 22 32 31 30 29 30 29 29 30 30 32 31 31 37 38 40 41 42 49 49 47 49 49 50 49 49 50 50 50
12 11 11 12 11 13 14 16 17 18 19 23 31 31 31 30 31 31 32 33 33 32 33 36 39 41 42 49 49 48 49 49 50 49 49 48 49 49
8 9 10 10 11 12 13 13 16 16 17 19 21 25 32 33 34 32 34 34 34 35 35 37 39 42 44 48 51 48 48 48 48 49 49 48 48 49
7 8 8 9 11 12 13 14 14 16 17 17 18 19 22 25 33 36 36 34 35 34 37 39 41 45 46 46 48 47 47 48 48 48 49 48 47 48
7 7 8 9 9 10 12 14 14 15 15 16 16 17 19 20 22 27 34 36 39 38 38 39 45 48 47 46 45 44 39 47 47 47 47 47 46 45
6 6 6 7 8 9 11 14 14 15 15 15 15 16 17 17 17 19 23 28 30 30 28 27 29 34 36 42 43 37 34 37 45 47 47 45 43 43
6 5 5 6 7 8 9 11 13 12 13 13 14 14 15 16 16 16 18 20 21 22 24 26 29 33 34 36 36 34 33 33 35 36 38 42 43 42
6 5 4 4 5 7 8 9 12 12 12 12 13 13 14 14 15 16 17 20 20 20 21 23 25 27 27 30 32 32 33 33 34 33 32 35 36 36
Wind_Speed
10 10 10 10 10 11 12 12 11 9 15 7 8 6 10 12 13 15 21 24 30 32 33 33 31 29 29 28 27 24 25 27 25 23 23 23 23 22
9 10 11 11 11 11 12 13 15 19 20 3 10 14 18 18 16 13 15 22 28 32 34 34 34 32 32 30 29 27 24 25 27 26 24 24 24 22
11 12 14 13 13 12 12 14 17 18 28 29 22 19 22 24 26 22 17 18 19 29 33 34 36 36 34 34 32 31 28 27 28 27 26 24 23 22
14 14 15 15 15 15 16 18 19 19 24 38 25 23 24 21 23 26 25 21 22 22 33 34 37 37 34 34 33 32 30 28 30 30 28 24 23 22
17 18 18 18 19 17 18 19 19 20 23 29 32 24 25 20 22 24 25 24 23 25 28 37 38 39 37 36 35 34 34 33 32 31 30 32 29 25
18 19 21 21 23 23 23 24 23 24 24 27 31 28 25 23 24 25 24 21 25 23 24 29 31 36 35 39 38 36 35 35 34 33 34 33 32 30
19 21 22 25 30 30 26 25 26 27 26 28 33 29 29 25 30 21 26 23 27 22 23 23 25 27 30 36 36 38 37 37 37 36 34 34 34 31
21 21 23 29 31 37 41 43 39 32 35 32 33 36 35 30 26 25 27 25 31 20 28 28 24 30 30 31 37 36 37 38 38 38 37 35 31 34
23 24 26 24 31 29 35 45 47 50 53 41 42 42 35 31 25 28 28 26 30 22 20 30 25 30 28 30 38 38 39 39 38 38 37 35 36 34
24 25 28 30 27 32 35 38 39 43 46 45 49 47 39 32 30 29 27 25 25 26 24 32 27 30 26 27 35 41 41 41 39 38 38 37 35 34
22 25 27 29 31 36 36 39 42 43 38 49 54 54 50 45 37 29 32 31 32 32 27 28 31 26 26 28 28 39 39 39 40 39 38 39 36 36
22 21 27 30 35 36 36 36 43 45 39 39 35 50 53 46 47 42 27 29 30 26 26 26 31 29 15 25 27 25 29 37 39 39 40 39 36 28
20 20 20 30 36 37 37 36 49 50 42 39 36 35 35 39 38 38 40 32 24 33 22 25 33 28 16 10 24 25 24 26 30 30 36 38 39 37
19 18 20 31 32 34 32 39 34 33 31 31 31 33 33 34 34 36 36 36 31 31 24 23 19 28 24 14 11 24 22 24 26 29 27 28 32 38
18 23 27 29 29 26 32 36 34 13 22 29 27 24 25 25 27 29 32 36 35 34 30 30 25 36 25 26 19 14 20 24 26 27 25 26 28 23
21 19 23 24 25 28 28 28 25 25 10 15 18 20 20 23 26 26 28 29 32 38 30 32 30 30 27 30 26 19 19 18 25 27 26 25 25 27
20 17 19 24 27 28 28 27 27 27 24 19 14 19 22 25 27 27 29 25 31 33 32 29 34 34 31 30 21 22 22 20 20 24 25 24 24 24
18 20 23 24 25 27 28 28 27 29 25 21 16 10 19 24 26 28 29 31 29 28 29 26 26 26 27 30 23 23 20 22 15 22 22 24 23 22
19 20 22 23 24 24 26 28 28 26 24 21 18 16 13 10 25 24 29 30 29 31 29 27 26 28 32 31 10 3 23 20 18 19 21 20 17 21
17 19 20 22 23 24 25 27 27 26 27 24 21 19 17 12 9 2 17 24 28 18 13 8 22 33 30 27 13 10 8 20 21 22 18 13 7 5
16 17 18 19 21 22 22 21 25 27 26 24 24 22 20 18 21 19 20 18 15 8 13 6 3 1 6 11 13 6 6 15 9 20 14 17 14 9
14 14 16 17 17 19 20 20 21 23 25 26 25 25 25 25 27 28 26 23 18 13 11 9 15 11 8 5 9 11 10 10 21 28 21 10 9 13
13 15 15 14 16 16 17 19 19 23 23 22 24 26 25 26 25 23 22 19 16 19 19 19 19 17 17 14 16 13 12 7 5 16 19 18 17 13
Wind_Direction
261 259 255 259 257 255 255 255 252 288 290 271 263 259 265 278 274 245 234 236 232 226 223 221 222 221 217 218 222 228 218 216 214 205 203 198 200 199
262 256 250 249 252 251 250 251 246 255 270 263 280 309 314 309 303 309 318 274 234 226 222 217 218 218 216 215 216 224 225 215 211 206 201 197 197 199
261 261 263 258 254 250 249 249 248 247 260 274 273 277 276 278 283 288 286 289 270 235 226 218 219 216 216 214 214 216 224 222 211 207 200 197 199 199
276 268 266 266 261 254 249 250 249 248 257 273 272 271 265 266 270 273 277 268 267 275 228 225 218 220 214 213 214 211 215 217 209 200 192 187 193 194
274 270 266 263 264 260 255 255 253 252 254 264 273 269 268 264 261 262 262 264 260 263 261 223 223 219 215 213 212 214 208 207 201 195 192 188 198 204
269 269 265 262 259 258 256 254 254 253 252 257 266 267 261 258 256 254 262 259 260 252 266 236 224 226 215 214 210 209 209 207 206 203 199 197 198 205
272 268 266 263 262 260 256 255 252 253 253 253 258 260 256 250 242 243 253 260 264 256 248 246 222 226 221 216 213 207 209 209 209 210 208 207 205 210
281 279 274 272 272 269 268 264 254 248 248 248 252 251 251 246 244 236 241 243 253 240 235 253 222 218 223 217 218 209 208 209 208 209 210 210 212 207
282 281 279 273 273 269 264 263 259 254 247 242 245 247 247 245 248 242 234 234 241 252 243 237 229 222 220 221 212 207 205 208 207 206 208 209 208 212
280 281 280 279 276 276 272 265 257 252 248 246 244 246 244 240 246 245 242 247 257 253 251 248 249 219 215 219 209 205 205 205 206 205 206 208 210 212
287 285 286 285 282 282 276 272 268 261 254 248 244 246 242 236 232 239 237 235 243 240 230 240 245 223 207 215 215 208 206 203 203 205 206 206 209 212
296 298 298 296 295 289 280 275 270 264 255 249 247 243 240 236 229 235 243 231 230 240 228 231 227 231 201 213 214 209 210 204 202 203 206 203 203 213
314 311 304 303 302 302 295 286 272 262 249 249 243 239 234 231 227 226 235 242 238 235 233 220 225 243 187 178 205 206 199 205 210 210 210 203 199 208
320 314 309 319 323 324 320 308 305 281 225 239 241 237 222 219 221 222 226 236 240 244 246 249 242 241 191 186 178 201 200 206 202 211 211 211 211 209
331 331 333 336 340 336 338 347 359 251 228 235 229 215 210 215 218 222 226 233 241 247 243 235 252 249 278 204 201 189 195 207 204 205 209 210 211 207
341 332 343 345 352 357 350 358 2 357 276 216 213 213 211 214 218 216 224 221 223 233 235 238 239 251 250 254 202 192 192 192 196 204 206 213 213 214
351 348 348 1 360 357 355 359 7 2 354 335 246 222 222 222 223 219 218 226 216 224 230 228 227 235 237 258 201 194 190 197 190 198 200 211 216 212
9 6 356 2 1 355 357 360 3 1 352 345 336 309 240 231 229 224 215 213 220 219 226 224 213 222 242 239 209 191 195 199 186 192 198 208 219 213
13 7 2 359 358 354 358 3 360 355 350 354 348 347 341 310 235 235 211 217 214 224 225 214 207 219 208 206 177 179 190 189 180 186 192 199 212 213
11 5 0 354 355 355 358 1 358 357 358 357 358 1 4 4 23 61 214 214 213 192 189 203 224 209 207 201 182 174 36 178 186 190 189 190 182 99
4 0 355 350 351 352 352 358 3 3 359 359 2 4 10 23 34 33 47 53 75 101 99 79 315 161 112 122 156 141 50 45 163 183 170 180 190 197
2 359 355 345 347 348 348 350 4 6 4 2 5 6 10 21 29 30 30 38 43 58 68 48 44 67 71 109 145 138 124 80 66 70 76 114 170 203
354 351 356 350 342 347 348 347 355 4 5 9 8 10 14 22 25 30 30 33 33 44 41 48 50 55 52 58 86 82 91 99 76 83 63 58 83 87